カタログに戻る

TITAN 3C TRANSTAGE DEB

LostHEO
NORAD 36980·DEBRIS·🇺🇸 United States

打ち上げ Dec 21, 1965 から Cape Canaveral Space Force Station

Loading…

次のパス (今後24時間)

TLE

古いSource: Space-Track

元期: Jun 22, 2026, 04:51 UTC

1 36980U 65108DL  26173.20244544  .00000004  00000-0  24592-3 0  9999
2 36980  26.7252 193.1510 6761462   5.4412   9.1636  2.70791478 20518

AllMySatでTITAN 3C TRANSTAGE DEBをリアルタイム追跡

Download on the App Store